This is the latest recevied weather packets stored in our database for station/object KC3DGM. If no packets are shown the sender has not sent any weather packets the latest 10 day(s).
| Time | Temp. | Humidity | Pressure | Rain* | Wind** | Luminosity | Snow |
|---|---|---|---|---|---|---|---|
| 1778103342 | 10.56° C | 56% | 983.3 hPa | 0 mm | - | 69 W/m² | - |
| 1778103040 | 10.56° C | 55% | 983.2 hPa | 0 mm | - | 71 W/m² | - |
| 1778102736 | 10.56° C | 55% | 983.1 hPa | 0 mm | - | 62 W/m² | - |
| 1778102431 | 10.56° C | 55% | 982.8 hPa | 0 mm | - | 110 W/m² | - |
| 1778102127 | 10.56° C | 58% | 983.2 hPa | 0 mm | - | 65 W/m² | - |
| 1778101825 | 10.56° C | 56% | 983 hPa | 0 mm | - | 57 W/m² | - |
| 1778101521 | 11.11° C | 55% | 982.8 hPa | 0 mm | - | 61 W/m² | - |
| 1778101218 | 11.11° C | 58% | 982.9 hPa | 0 mm | - | 70 W/m² | - |
| 1778100914 | 11.11° C | 58% | 982.9 hPa | 0 mm | - | 80 W/m² | - |
| 1778100610 | 11.11° C | 57% | 982.4 hPa | 0 mm | - | 94 W/m² | - |
| 1778100308 | 11.67° C | 55% | 982.9 hPa | 0 mm | - | 97 W/m² | - |
| 1778100005 | 11.67° C | 54% | 982.7 hPa | 0 mm | - | 159 W/m² | - |
| 1778099703 | 12.22° C | 56% | 982.4 hPa | 0 mm | - | 187 W/m² | - |
| 1778099399 | 12.78° C | 55% | 982.6 hPa | 0 mm | - | 307 W/m² | - |
| 1778099097 | 11.67° C | 56% | 982.2 hPa | 0 mm | - | 340 W/m² | - |
| 1778098792 | 11.67° C | 56% | 982.6 hPa | 0 mm | - | 189 W/m² | - |
| 1778098490 | 11.67° C | 56% | 982.4 hPa | 0 mm | - | 147 W/m² | - |
| 1778098187 | 11.67° C | 60% | 982.6 hPa | 0 mm | - | 147 W/m² | - |
| 1778097883 | 11.11° C | 60% | 982.7 hPa | 0 mm | - | 114 W/m² | - |
| 1778097579 | 11.67° C | 58% | 982.8 hPa | 0 mm | - | 100 W/m² | - |
| 1778097277 | 11.67° C | 60% | 982.7 hPa | 0 mm | - | 131 W/m² | - |
| 1778096973 | 11.67° C | 58% | 982.7 hPa | 0 mm | - | 170 W/m² | - |
| 1778096671 | 11.67° C | 58% | 982.6 hPa | 0 mm | - | 156 W/m² | - |
| 1778096367 | 11.67° C | 58% | 982.6 hPa | 0 mm | - | 149 W/m² | - |
| 1778096065 | 11.67° C | 58% | 982.3 hPa | 0 mm | - | 170 W/m² | - |
* Rain latest hour (hover to see other rain measurements)
** Current wind speed in m/s (hover to see current wind gust speed)